Home   Weather   Vancouver   Past weeks

Flag for USA Past Weather in Vancouver, Washington, USA — Yesterday and Last 2 Weeks

Now
55 °F

Broken clouds.


Feels Like: 53 °F
Forecast: 44 / 55 °F
Wind: 8 mph from Northwest

Location: Vancouver - Pearson Airpark

Current Time: Apr 26, 2017 at 6:39:32 pm

Latest Report: Apr 26, 2017 at 5:53 pm


Visibility: 10 mi

Pressure: 29.97 "Hg

Humidity: 62%

Dew Point: 42 °F

Location of VancouverLocation

Past Weather in Vancouver — Graph

°F

Vancouver Temperature Yesterday

Maximum temperature yesterday: 55 °F (at 10:53 pm)
Minimum temperature yesterday: 47 °F (at 12:53 am)
Average temperature yesterday: 51 °F

High & Low Weather Summary for the Past Weeks

 TemperatureHumidityPressure
High71 °F (Apr 21, 3:53 pm)100% (Apr 11, 11:53 pm)30.43 "Hg (Apr 11, 11:53 pm)
Low38 °F (Apr 15, 6:03 am)32% (Apr 21, 3:53 pm)29.64 "Hg (Apr 12, 2:53 am)
Average52 °F80%29.97 "Hg
* Reported Apr 11 4:53 pm — Apr 26 4:53 pm, Vancouver, Weather by CustomWeather, © 2017

Note: Actual official high and low records may vary slightly from our data, if they occured in-between our weather recording intervals... More about our weather records

Advertising

Vancouver Weather History for the Previous 24 Hours

Scroll right to see more
 ConditionsComfort  
Time TempWeatherWind HumidityBarometerVisibility
4:53 pm
Wed, Apr 26
57 °FBroken clouds.17 mph58%29.95 "Hg10 mi
3:53 pm58 °FPartly sunny.6 mph67%29.93 "Hg10 mi
2:53 pm57 °FScattered clouds.8 mph69%29.93 "Hg10 mi
1:53 pm52 °FLight rain. Fog.6 mph86%29.94 "Hg3 mi
12:53 pm53 °FLight rain. More clouds than sun.6 mph80%29.93 "Hg10 mi
12:32 pm52 °FCloudy.5 mph86%29.92 "Hg10 mi
11:53 am51 °FCloudy.5 mph86%29.92 "Hg10 mi
10:53 am51 °FCloudy.No wind86%29.92 "Hg10 mi
9:53 am49 °FLight rain. Cloudy.3 mph97%29.90 "Hg10 mi
8:53 am49 °FMostly cloudy.5 mph97%29.88 "Hg10 mi
7:53 am50 °FLight rain. Mostly cloudy.5 mph93%29.88 "Hg10 mi
6:53 am50 °FLight rain. Mostly cloudy.No wind93%29.87 "Hg10 mi
6:19 am51 °FLight rain. More clouds than sun.5 mph92%29.86 "Hg10 mi
5:53 am52 °FLight rain. Overcast.9 mph86%29.86 "Hg10 mi
4:53 am52 °FMostly cloudy.No wind89%29.85 "Hg10 mi
3:53 am52 °FMostly cloudy.5 mph93%29.87 "Hg10 mi
2:53 am53 °FClear.3 mph89%29.88 "Hg10 mi
1:53 am53 °FPassing clouds.5 mph86%29.89 "Hg10 mi
12:53 am54 °FOvercast.No wind83%29.89 "Hg10 mi
11:53 pm
Tue, Apr 25
54 °FMostly cloudy.5 mph86%29.88 "Hg10 mi
10:53 pm55 °FOvercast.6 mph83%29.86 "Hg10 mi
9:53 pm54 °FOvercast.3 mph97%29.84 "Hg10 mi
9:07 pm53 °FOvercast.6 mph100%29.83 "Hg10 mi
8:53 pm52 °FMostly cloudy.5 mph100%29.83 "Hg10 mi
8:15 pm51 °FLight rain. Fog.6 mph100%29.83 "Hg4 mi
8:06 pm51 °FLight rain. Fog.8 mph100%29.82 "Hg2 mi
7:53 pm51 °FLight rain. Fog.8 mph100%29.82 "Hg2 mi
6:53 pm51 °FLight rain. Fog.8 mph100%29.83 "Hg2 mi
6:35 pm51 °FLight rain. Fog.8 mph100%29.83 "Hg2 mi
Weather by CustomWeather, © 2017

See weather overviewHow to use our weather pages